Benton Harbor, MI

3:44 PM EDT on October 22, 2017 (GMT -0400)
Southwest Michigan Regional

Weather History for KBEH - November, 2013

Change the Weather History Date:

Wednesday, November 6, 2013

  Actual Average Record
Temperature  
Mean Temperature 48 °F -  
Max Temperature 55 °F 50 °F 77 °F (1975)
Min Temperature 42 °F 33 °F 16 °F (1951)
Degree Days  
Heating Degree Days 16    
Moisture  
Dew Point 49 °F    
Average Humidity 92    
Maximum Humidity 100    
Minimum Humidity 65    
Precipitation  
Precipitation 0.83 in - - ()
Sea Level Pressure  
Sea Level Pressure 29.90 in    
Wind  
Wind Speed 13 mph (SW)    
Max Wind Speed 20 mph    
Max Gust Speed 31 mph    
Visibility 5 miles    
Events Rain    
Averages and records for this station are not official NWS values.
T = Trace of Precipitation, MM = Missing Value Source: NWS Daily Summary

Daily Weather History Graph

Daily Weather History Graph

Search for Another Location

Airport or City:

Trip Planner

Search our weather history database for the weather conditions in past years. The results will help you decide how hot, cold, wet, or windy it might be!

Date:

Astronomy

Nov. 06, 2013 Rise Set
Actual Time 7:25 AM EST 5:33 PM EST
Civil Twilight 6:55 AM EST 6:02 PM EST
Nautical Twilight 6:22 AM EST 6:35 PM EST
Astronomical Twilight 5:49 AM EST 7:08 PM EST
Moon 10:41 AM EST (11/6) 8:35 PM EST (11/6)
Length of Visible Light 11h 06m
Length of Day
10h 08m
Waxing Crescent, 13% of the Moon is Illuminated
Nov 6
Waxing Crescent
Nov 10
First Quarter
Nov 17
Full
Nov 25
Last Quarter
Dec 2
New

Hourly Weather History & Observations

Time (EST) Temp. Windchill Dew Point Humidity Pressure Visibility Wind Dir Wind Speed Gust Speed Precip Events Conditions
12:53 AM 53.1 °F - 46.0 °F 77% 30.03 in 10.0 mi SSE 10.4 mph - 0.00 in   Overcast
1:53 AM 51.1 °F - 46.9 °F 86% 30.00 in 10.0 mi SE 9.2 mph - 0.00 in   Overcast
2:48 AM 53.6 °F - 48.2 °F 82% 29.97 in 2.5 mi South 12.7 mph 23.0 mph 0.04 in Rain Rain
2:53 AM 54.0 °F - 48.9 °F 83% 29.97 in 5.0 mi South 10.4 mph 23.0 mph 0.05 in Rain Light Rain
3:53 AM 55.9 °F - 46.9 °F 72% 29.92 in 10.0 mi South 15.0 mph 25.3 mph 0.00 in   Overcast
4:53 AM 55.0 °F - 50.0 °F 83% 29.91 in 5.0 mi South 12.7 mph - 0.04 in Rain Rain
5:45 AM 53.6 °F - 53.6 °F 100% 29.88 in 2.5 mi South 13.8 mph 24.2 mph 0.05 in Rain Rain
5:53 AM 54.0 °F - 53.1 °F 97% 29.88 in 3.0 mi South 16.1 mph 25.3 mph 0.07 in Rain Rain
5:58 AM 53.6 °F - 53.6 °F 100% 29.88 in 2.5 mi South 16.1 mph 25.3 mph 0.01 in Rain Rain
6:00 AM 53.6 °F - 53.6 °F 100% 29.87 in 3.0 mi South 17.3 mph 25.3 mph 0.01 in Rain Light Rain
6:21 AM 53.6 °F - 53.6 °F 100% 29.87 in 3.0 mi South 15.0 mph 25.3 mph 0.04 in Rain Rain
6:53 AM 54.0 °F - 53.1 °F 97% 29.88 in 2.5 mi South 16.1 mph 25.3 mph 0.11 in Rain Heavy Rain
7:19 AM 53.6 °F - 53.6 °F 100% 29.87 in 2.5 mi SSW 11.5 mph 24.2 mph 0.14 in Rain Heavy Rain
7:35 AM 53.6 °F - 53.6 °F 100% 29.86 in 4.0 mi SSW 15.0 mph 24.2 mph 0.20 in Rain Rain
7:53 AM 54.0 °F - 54.0 °F 100% 29.86 in 3.0 mi South 15.0 mph 23.0 mph 0.25 in Rain Rain
8:00 AM 55.4 °F - 53.6 °F 94% 29.86 in 4.0 mi South 12.7 mph 23.0 mph 0.01 in Rain Rain
8:14 AM 55.4 °F - 53.6 °F 94% 29.86 in 5.0 mi South 12.7 mph 24.2 mph 0.02 in Rain Light Rain
8:19 AM 55.4 °F - 53.6 °F 94% 29.86 in 2.5 mi South 15.0 mph 24.2 mph 0.02 in Rain Rain
8:24 AM 55.4 °F - 53.6 °F 94% 29.86 in 3.0 mi SSW 13.8 mph 21.9 mph 0.03 in Rain Light Rain
8:27 AM 55.4 °F - 53.6 °F 94% 29.86 in 3.0 mi South 15.0 mph 21.9 mph 0.03 in Rain Light Rain
8:34 AM 55.4 °F - 53.6 °F 94% 29.86 in 4.0 mi South 13.8 mph 24.2 mph 0.04 in Rain Rain
8:53 AM 55.0 °F - 54.0 °F 96% 29.86 in 5.0 mi South 12.7 mph 21.9 mph 0.05 in Rain Light Rain
9:31 AM 55.4 °F - 53.6 °F 94% 29.86 in 2.0 mi SSW 16.1 mph 29.9 mph 0.06 in Rain Rain
9:47 AM 53.6 °F - 53.6 °F 100% 29.86 in 2.0 mi SSW 11.5 mph 21.9 mph 0.10 in Rain Rain
9:53 AM 54.0 °F - 54.0 °F 100% 29.86 in 2.5 mi SSW 9.2 mph 19.6 mph 0.11 in Rain Light Rain
10:02 AM 53.6 °F - 53.6 °F 100% 29.85 in 2.5 mi SSW 13.8 mph 19.6 mph 0.00 in Rain Light Rain
10:05 AM 53.6 °F - 53.6 °F 100% 29.85 in 3.0 mi SSW 13.8 mph 19.6 mph 0.01 in Rain Light Rain
10:13 AM 55.4 °F - 53.6 °F 94% 29.85 in 4.0 mi South 11.5 mph 25.3 mph 0.01 in Rain Light Rain
10:23 AM 53.6 °F - 53.6 °F 100% 29.84 in 2.5 mi SSW 12.7 mph 23.0 mph 0.01 in Rain Light Rain
10:35 AM 53.6 °F - 53.6 °F 100% 29.84 in 3.0 mi SSW 11.5 mph 19.6 mph 0.02 in Rain Light Rain
10:42 AM 53.6 °F - 53.6 °F 100% 29.84 in 4.0 mi SSW 12.7 mph 21.9 mph 0.02 in Rain Light Rain
10:53 AM 54.0 °F - 54.0 °F 100% 29.85 in 4.0 mi SSW 13.8 mph 19.6 mph 0.03 in Rain Light Rain
11:05 AM 53.6 °F - 53.6 °F 100% 29.84 in 2.0 mi SSW 13.8 mph 20.7 mph 0.00 in Rain Light Rain
11:27 AM 55.4 °F - 53.6 °F 94% 29.83 in 3.0 mi SSW 15.0 mph 21.9 mph 0.01 in Rain Light Rain
11:46 AM 55.4 °F - 53.6 °F 94% 29.82 in 5.0 mi SSW 13.8 mph 23.0 mph 0.02 in Rain Light Rain
11:53 AM 55.0 °F - 54.0 °F 96% 29.83 in 4.0 mi SSW 11.5 mph - 0.02 in Rain Light Rain
11:56 AM 55.4 °F - 53.6 °F 94% 29.82 in 4.0 mi SSW 13.8 mph 21.9 mph 0.00 in Rain Light Rain
11:58 AM 55.4 °F - 53.6 °F 94% 29.82 in 3.0 mi SSW 13.8 mph 21.9 mph 0.01 in Rain Light Rain
12:08 PM 55.4 °F - 53.6 °F 94% 29.81 in 4.0 mi South 15.0 mph 21.9 mph 0.02 in Rain Rain
12:53 PM 55.0 °F - 54.0 °F 96% 29.81 in 10.0 mi SSW 12.7 mph 19.6 mph 0.02 in   Overcast
1:08 PM 55.4 °F - 53.6 °F 94% 29.79 in 10.0 mi SSW 12.7 mph 19.6 mph N/A   Overcast
1:33 PM 55.4 °F - 53.6 °F 94% 29.80 in 10.0 mi SSW 12.7 mph 23.0 mph N/A   Overcast
1:53 PM 55.0 °F - 54.0 °F 96% 29.81 in 3.0 mi SW 12.7 mph 21.9 mph 0.01 in Rain Light Rain
1:57 PM 55.4 °F - 53.6 °F 94% 29.80 in 1.8 mi SW 19.6 mph 26.5 mph 0.00 in Rain Rain
2:14 PM 55.4 °F - 53.6 °F 94% 29.81 in 2.0 mi SW 19.6 mph 27.6 mph 0.01 in Rain Light Rain
2:34 PM 50.0 °F - 48.2 °F 94% 29.84 in 3.0 mi WNW 13.8 mph 31.1 mph 0.02 in Rain Light Rain
2:53 PM 48.0 °F - 46.9 °F 96% 29.87 in 4.0 mi West 12.7 mph 25.3 mph 0.02 in   Overcast
3:15 PM 46.4 °F 40.1 °F 44.6 °F 93% 29.88 in 2.0 mi WNW 15.0 mph 25.3 mph N/A   Overcast
3:25 PM 44.6 °F 38.1 °F 44.6 °F 100% 29.88 in 10.0 mi WNW 13.8 mph 25.3 mph N/A   Overcast
3:44 PM 44.6 °F 38.1 °F 44.6 °F 100% 29.90 in 1.8 mi WNW 13.8 mph 21.9 mph 0.03 in Rain Heavy Rain
3:53 PM 44.1 °F 37.4 °F 43.0 °F 96% 29.92 in 2.5 mi WNW 13.8 mph - 0.05 in Rain Light Rain
4:01 PM 44.6 °F 39.2 °F 42.8 °F 93% 29.91 in 10.0 mi NW 10.4 mph 20.7 mph 0.00 in Rain Light Rain
4:53 PM 43.0 °F 36.4 °F 41.0 °F 93% 29.94 in 6.0 mi WNW 12.7 mph 19.6 mph 0.00 in   Overcast
5:10 PM 42.8 °F 37.0 °F 41.0 °F 93% 29.96 in 6.0 mi WNW 10.4 mph 20.7 mph N/A   Overcast
5:21 PM 42.8 °F 36.6 °F 41.0 °F 93% 29.96 in 4.0 mi WNW 11.5 mph 21.9 mph N/A   Overcast
5:53 PM 43.0 °F 36.4 °F 39.9 °F 89% 29.98 in 7.0 mi WNW 12.7 mph 26.5 mph 0.00 in   Overcast
6:53 PM 44.1 °F 38.1 °F 39.0 °F 82% 30.01 in 10.0 mi NW 11.5 mph 17.3 mph N/A   Overcast
7:53 PM 44.1 °F 36.8 °F 37.9 °F 79% 30.05 in 10.0 mi WNW 16.1 mph 27.6 mph N/A   Overcast
8:44 PM 44.6 °F 40.2 °F 35.6 °F 71% 30.05 in 10.0 mi NW 8.1 mph 16.1 mph N/A   Overcast
8:53 PM 44.1 °F 37.4 °F 37.0 °F 76% 30.06 in 10.0 mi West 13.8 mph 21.9 mph N/A   Overcast
9:45 PM 44.6 °F 37.4 °F 35.6 °F 71% 30.06 in 10.0 mi WNW 16.1 mph 21.9 mph N/A   Overcast
9:53 PM 44.1 °F 38.1 °F 37.0 °F 76% 30.06 in 10.0 mi WNW 11.5 mph 21.9 mph N/A   Overcast
10:53 PM 44.1 °F 38.1 °F 36.0 °F 73% 30.07 in 10.0 mi NW 11.5 mph 23.0 mph 0.00 in   Overcast
11:01 PM 44.6 °F 38.8 °F 35.6 °F 71% 30.06 in 10.0 mi NW 11.5 mph 23.0 mph N/A   Overcast
11:53 PM 43.0 °F 36.4 °F 32.0 °F 65% 30.09 in 10.0 mi WNW 12.7 mph 21.9 mph N/A   Overcast